Partly cloudy
Overcast
Overcast
Partly cloudy
Clear with few low clouds
Clear, cloudless sky
Clear, cloudless sky
(°F)
26°
26°
27°
29°
33°
36°
38°
(°F)
17°
17°
18°
19°
21°
24°
26°
NE
NE
NE
NE
NE
NE
NE
(mph)
6-9
5-9
6-10
8-12
10-14
11-17
11-16
(in)
0
0
0
0
0
0
0
(%)
0
0
0
0
0
0
0

Sun elevation

/ -18.9°
sun-icon
UV 3
07:37
18:04
Waning gibbous moon (199°)
19:40
08:48

METAR for Ioannina (LGIO)

Time Conditions Temperature/
Dewpoint
Wind Visibility Weather Clouds Pressure Change Raw
26.6°F / °F variable 1kt - 1025 - LGIO 070350Z AUTO VRB01KT //// // ////// M03/M10 Q1025 RE//
28.4°F / °F variable 2kt - 1025 - LGIO 070320Z AUTO VRB02KT //// // ////// M02/M12 Q1025 RE//
28.4°F / °F variable 3kt - 1025 - LGIO 070250Z AUTO VRB03KT //// // ////// M02/M12 Q1025 RE//
28.4°F / °F variable 3kt - 1025 - LGIO 070220Z AUTO VRB03KT //// // ////// M02/M12 Q1025 RE//
28.4°F / °F 240º 4kt - 1025 - LGIO 070150Z AUTO 24004KT //// // ////// M02/M11 Q1025 RE//
28.4°F / °F variable 2kt - 1025 - LGIO 070120Z AUTO VRB02KT //// // ////// M02/M11 Q1025 RE//
28.4°F / °F variable 1kt - 1025 - LGIO 070050Z AUTO VRB01KT //// // ////// M02/M12 Q1025 RE//
28.4°F / °F variable 1kt - 1025 - LGIO 070020Z AUTO VRB01KT //// // ////// M02/M12 Q1025 RE//
28.4°F / °F 260º variable 220º to 280º 4kt - 1025 - LGIO 062350Z AUTO 26004KT 220V280 //// // ////// M02/M12 Q1025 RE//
30.2°F / °F 290º variable 220º to 320º 4kt - 1024 - LGIO 062320Z AUTO 29004KT 220V320 //// // ////// M01/M13 Q1024 RE//
30.2°F / °F 40º variable 030º to 220º 7kt - 1024 - LGIO 062250Z AUTO 04007KT 030V220 //// // ////// M01/M13 Q1024 RE//
30.2°F / °F 50º variable 300º to 140º 8kt Gust 19kt - 1024 - LGIO 062220Z AUTO 05008G19KT 300V140 //// // ////// M01/M13 Q1024 RE//
30.2°F / °F 60º variable 020º to 120º 11kt - 1024 - LGIO 062150Z AUTO 06011KT 020V120 //// // ////// M01/M13 Q1024 RE//
30.2°F / °F 40º variable 010º to 090º 13kt - 1024 - LGIO 062120Z AUTO 04013KT 010V090 //// // ////// M01/M13 Q1024 RE//
30.2°F / °F 50º variable 030º to 100º 11kt - 1024 - LGIO 062050Z AUTO 05011KT 030V100 //// // ////// M01/M12 Q1024 RE//
30.2°F / °F 30º variable 020º to 120º 8kt - 1024 - LGIO 062020Z AUTO 03008KT 020V120 //// // ////// M01/M12 Q1024 RE//
32°F / °F 50º variable 030º to 090º 9kt - 1023 - LGIO 061950Z AUTO 05009KT 030V090 //// // ////// M00/M12 Q1023 RE//
32°F / °F 60º variable 020º to 080º 11kt - 1023 - LGIO 061920Z AUTO 06011KT 020V080 //// // ////// M00/M12 Q1023 RE//
32°F / °F 70º variable 010º to 080º 11kt - 1023 - LGIO 061850Z AUTO 07011KT 010V080 //// // ////// M00/M12 Q1023 RE//
VFR 32°F / °F 80º variable 010º to 100º 12kt >10km - Few Clouds 3000ft 1022 - LGIO 061820Z 08012KT 010V100 9999 FEW030 M00/M12 Q1022
VFR 32°F / °F 70º variable 020º to 100º 10kt >10km - Few Clouds 3000ft 1022 - LGIO 061750Z 07010KT 020V100 9999 FEW030 00/M12 Q1022
VFR 32°F / °F 70º variable 010º to 070º 10kt >10km - Few Clouds 3000ft 1022 - LGIO 061720Z 07010KT 010V070 9999 FEW030 00/M12 Q1022
VFR 32°F / °F 60º variable 360º to 100º 8kt >10km - Few Clouds 3000ft 1022 - LGIO 061650Z 06008KT 360V100 9999 FEW030 00/M12 Q1022
VFR 32°F / °F 50º variable 020º to 090º 12kt >10km - Few Clouds 3000ft 1021 - LGIO 061620Z 05012KT 020V090 9999 FEW030 00/M12 Q1021

26.6°F / °F

[More]
Wind variable 1kt
Visibility
Weather -
Clouds
Pressure 1025
Change -
Raw LGIO 070350Z AUTO VRB01KT //// // ////// M03/M10 Q1025 RE//

28.4°F / °F

[More]
Wind variable 2kt
Visibility
Weather -
Clouds
Pressure 1025
Change -
Raw LGIO 070320Z AUTO VRB02KT //// // ////// M02/M12 Q1025 RE//

28.4°F / °F

[More]
Wind variable 3kt
Visibility
Weather -
Clouds
Pressure 1025
Change -
Raw LGIO 070250Z AUTO VRB03KT //// // ////// M02/M12 Q1025 RE//

28.4°F / °F

[More]
Wind variable 3kt
Visibility
Weather -
Clouds
Pressure 1025
Change -
Raw LGIO 070220Z AUTO VRB03KT //// // ////// M02/M12 Q1025 RE//

28.4°F / °F

[More]
Wind 240º 4kt
Visibility
Weather -
Clouds
Pressure 1025
Change -
Raw LGIO 070150Z AUTO 24004KT //// // ////// M02/M11 Q1025 RE//

28.4°F / °F

[More]
Wind variable 2kt
Visibility
Weather -
Clouds
Pressure 1025
Change -
Raw LGIO 070120Z AUTO VRB02KT //// // ////// M02/M11 Q1025 RE//

28.4°F / °F

[More]
Wind variable 1kt
Visibility
Weather -
Clouds
Pressure 1025
Change -
Raw LGIO 070050Z AUTO VRB01KT //// // ////// M02/M12 Q1025 RE//

28.4°F / °F

[More]
Wind variable 1kt
Visibility
Weather -
Clouds
Pressure 1025
Change -
Raw LGIO 070020Z AUTO VRB01KT //// // ////// M02/M12 Q1025 RE//

28.4°F / °F

[More]
Wind 260º variable 220º to 280º 4kt
Visibility
Weather -
Clouds
Pressure 1025
Change -
Raw LGIO 062350Z AUTO 26004KT 220V280 //// // ////// M02/M12 Q1025 RE//

30.2°F / °F

[More]
Wind 290º variable 220º to 320º 4kt
Visibility
Weather -
Clouds
Pressure 1024
Change -
Raw LGIO 062320Z AUTO 29004KT 220V320 //// // ////// M01/M13 Q1024 RE//

30.2°F / °F

[More]
Wind 40º variable 030º to 220º 7kt
Visibility
Weather -
Clouds
Pressure 1024
Change -
Raw LGIO 062250Z AUTO 04007KT 030V220 //// // ////// M01/M13 Q1024 RE//

30.2°F / °F

[More]
Wind 50º variable 300º to 140º 8kt Gust 19kt
Visibility
Weather -
Clouds
Pressure 1024
Change -
Raw LGIO 062220Z AUTO 05008G19KT 300V140 //// // ////// M01/M13 Q1024 RE//

30.2°F / °F

[More]
Wind 60º variable 020º to 120º 11kt
Visibility
Weather -
Clouds
Pressure 1024
Change -
Raw LGIO 062150Z AUTO 06011KT 020V120 //// // ////// M01/M13 Q1024 RE//

30.2°F / °F

[More]
Wind 40º variable 010º to 090º 13kt
Visibility
Weather -
Clouds
Pressure 1024
Change -
Raw LGIO 062120Z AUTO 04013KT 010V090 //// // ////// M01/M13 Q1024 RE//

30.2°F / °F

[More]
Wind 50º variable 030º to 100º 11kt
Visibility
Weather -
Clouds
Pressure 1024
Change -
Raw LGIO 062050Z AUTO 05011KT 030V100 //// // ////// M01/M12 Q1024 RE//

30.2°F / °F

[More]
Wind 30º variable 020º to 120º 8kt
Visibility
Weather -
Clouds
Pressure 1024
Change -
Raw LGIO 062020Z AUTO 03008KT 020V120 //// // ////// M01/M12 Q1024 RE//

32°F / °F

[More]
Wind 50º variable 030º to 090º 9kt
Visibility
Weather -
Clouds
Pressure 1023
Change -
Raw LGIO 061950Z AUTO 05009KT 030V090 //// // ////// M00/M12 Q1023 RE//

32°F / °F

[More]
Wind 60º variable 020º to 080º 11kt
Visibility
Weather -
Clouds
Pressure 1023
Change -
Raw LGIO 061920Z AUTO 06011KT 020V080 //// // ////// M00/M12 Q1023 RE//

32°F / °F

[More]
Wind 70º variable 010º to 080º 11kt
Visibility
Weather -
Clouds
Pressure 1023
Change -
Raw LGIO 061850Z AUTO 07011KT 010V080 //// // ////// M00/M12 Q1023 RE//

VFR

32°F / °F

[More]
Wind 80º variable 010º to 100º 12kt
Visibility >10km
Weather -
Clouds Few Clouds 3000ft
Pressure 1022
Change -
Raw LGIO 061820Z 08012KT 010V100 9999 FEW030 M00/M12 Q1022

VFR

32°F / °F

[More]
Wind 70º variable 020º to 100º 10kt
Visibility >10km
Weather -
Clouds Few Clouds 3000ft
Pressure 1022
Change -
Raw LGIO 061750Z 07010KT 020V100 9999 FEW030 00/M12 Q1022

VFR

32°F / °F

[More]
Wind 70º variable 010º to 070º 10kt
Visibility >10km
Weather -
Clouds Few Clouds 3000ft
Pressure 1022
Change -
Raw LGIO 061720Z 07010KT 010V070 9999 FEW030 00/M12 Q1022

VFR

32°F / °F

[More]
Wind 60º variable 360º to 100º 8kt
Visibility >10km
Weather -
Clouds Few Clouds 3000ft
Pressure 1022
Change -
Raw LGIO 061650Z 06008KT 360V100 9999 FEW030 00/M12 Q1022

VFR

32°F / °F

[More]
Wind 50º variable 020º to 090º 12kt
Visibility >10km
Weather -
Clouds Few Clouds 3000ft
Pressure 1021
Change -
Raw LGIO 061620Z 05012KT 020V090 9999 FEW030 00/M12 Q1021

TAF for Ioannina (LGIO)

From till


From till Wind 50º 15kt. Visibility 10km or more. Scattered Clouds 2500ft. Broken Clouds 8000ft.
Becoming from till Wind 50º 15kt. Visibility 10km or more. Few Clouds 2500ft.

Raw: TAF LGIO 070200Z 0703/0712 05015KT 9999 SCT025 BKN080 BECMG 0707/0709 FEW025

Radar and precipitation nowcast for Ioannina

Drizzle
Light
Moderate
Heavy
Very Heavy
Hail

The location marker is placed on Ioannina. This animation shows the precipitation radar for the selected time range, as well as a 2h forecast. Drizzle or light snow fall might be invisible for the radar. Precipitation intensity is colour coded, ranging from turquoise to red.

Current satellite and rain images for Ioannina, Greece

The location marker is placed on Ioannina. [More]

The real-time satellite image combines visible light during daytime with infrared radiation during nighttime. At night, the image is not dark as infrared radiation can detect temperature differences. Unfortunately, low clouds and fog are difficult to distinguish from ground temperatures and thus can be almost invisible during the night. Meteosat satellite images for Europe are updated in real-time every 5 minutes. GOES-16/GOES-17 (North & South America) and Himawari (Asia) images update every 10 minutes.

Precipitation is estimated from radar and satellites. Precipitation estimates from satellites are less accurate at night than during daytime. Orange crosses mark places where lightning was detected (over Europe).

Copyright 2023 EUMETSAT / meteoblue. Lightning data provided by nowcast.

Back to top